When you browse on this site, cookies collect data to enhance your experience and personalize the content and advertising you see.
Visit our Privacy Policy to learn more. By continuing to use the site, you agree to this use of cookies and data.
  • în România
  • Lista ţărilor
  • Pe 7 zile
  • Temperatura apei
  • Hartă satelitară
  • Meteo pe hartă
  • Widget-uri
  • user-avatar
    Intrare

    Meteo pe oră la Benguela

    Astăzi, 17 Iunie, Luni

    Timp Temperatura Precipitaţii Vânt Presiune Umiditate
    00:00 +22°C° 0 mm 1 m/s 762 mmHg 62%
    01:00 +20°C° 0 mm 2 m/s 762 mmHg 74%
    02:00 +20°C° 0 mm 2 m/s 762 mmHg 72%
    03:00 +20°C° 0 mm 2 m/s 762 mmHg 70%
    04:00 +19°C° 0 mm 2 m/s 762 mmHg 68%
    05:00 +20°C° 0 mm 2 m/s 762 mmHg 65%
    06:00 +20°C° 0 mm 2 m/s 763 mmHg 61%
    07:00 +21°C° 0 mm 2 m/s 763 mmHg 59%
    08:00 +25°C° 0 mm 1 m/s 763 mmHg 49%
    09:00 +28°C° 0 mm 1 m/s 762 mmHg 39%
    10:00 +32°C° 0 mm 1 m/s 762 mmHg 29%
    11:00 +32°C° 0 mm 1 m/s 762 mmHg 29%
    12:00 +34°C° 0 mm 2 m/s 761 mmHg 29%
    13:00 +35°C° 0 mm 3 m/s 761 mmHg 28%
    14:00 +34°C° 0 mm 3 m/s 760 mmHg 30%
    15:00 +33°C° 0 mm 3 m/s 760 mmHg 32%
    16:00 +33°C° 0 mm 3 m/s 759 mmHg 34%
    17:00 +29°C° 0 mm 3 m/s 760 mmHg 44%
    18:00 +26°C° 0 mm 2 m/s 760 mmHg 54%
    19:00 +23°C° 0 mm 2 m/s 761 mmHg 65%
    20:00 +21°C° 0 mm 2 m/s 761 mmHg 66%
    21:00 +22°C° 0 mm 1 m/s 761 mmHg 67%
    22:00 +22°C° 0 mm 1 m/s 761 mmHg 68%
    23:00 +22°C° 0 mm 1 m/s 761 mmHg 65%

    Mâine, 18 Iunie, Marţi

    Timp Temperatura Precipitaţii Vânt Presiune Umiditate
    00:00 +22°C° 0 mm 1 m/s 761 mmHg 62%
    01:00 +22°C° 0 mm 1 m/s 761 mmHg 58%
    02:00 +21°C° 0 mm 1 m/s 761 mmHg 59%
    03:00 +21°C° 0 mm 1 m/s 761 mmHg 60%
    04:00 +21°C° 0 mm 1 m/s 761 mmHg 61%
    05:00 +21°C° 0 mm 1 m/s 761 mmHg 58%
    06:00 +22°C° 0 mm 1 m/s 761 mmHg 55%
    07:00 +21°C° 0 mm 2 m/s 762 mmHg 52%
    08:00 +26°C° 0 mm 1 m/s 762 mmHg 43%
    09:00 +29°C° 0 mm 1 m/s 762 mmHg 34%
    10:00 +33°C° 0 mm 1 m/s 761 mmHg 25%
    11:00 +35°C° 0 mm 2 m/s 761 mmHg 25%
    12:00 +35°C° 0 mm 3 m/s 760 mmHg 25%
    13:00 +36°C° 0 mm 4 m/s 760 mmHg 25%
    14:00 +35°C° 0 mm 3 m/s 759 mmHg 29%
    15:00 +34°C° 0 mm 3 m/s 759 mmHg 32%
    16:00 +32°C° 0 mm 2 m/s 758 mmHg 36%
    17:00 +29°C° 0 mm 2 m/s 759 mmHg 47%
    18:00 +26°C° 0 mm 1 m/s 759 mmHg 58%
    19:00 +23°C° 0 mm 1 m/s 760 mmHg 68%
    20:00 +23°C° 0 mm 1 m/s 760 mmHg 68%
    21:00 +23°C° 0 mm 1 m/s 760 mmHg 68%
    22:00 +23°C° 0 mm 1 m/s 761 mmHg 67%
    23:00 +23°C° 0 mm 1 m/s 761 mmHg 64%

    Poimâine, 19 Iunie, Miercuri

    Timp Temperatura Precipitaţii Vânt Presiune Umiditate
    00:00 +22°C° 0 mm 1 m/s 761 mmHg 61%
    01:00 +22°C° 0 mm 1 m/s 761 mmHg 58%
    02:00 +22°C° 0 mm 1 m/s 761 mmHg 59%
    03:00 +22°C° 0 mm 1 m/s 761 mmHg 61%
    04:00 +22°C° 0 mm 1 m/s 761 mmHg 62%
    05:00 +22°C° 0 mm 1 m/s 761 mmHg 57%
    06:00 +23°C° 0 mm 1 m/s 761 mmHg 52%
    07:00 +23°C° 0 mm 1 m/s 762 mmHg 47%
    08:00 +27°C° 0 mm 2 m/s 762 mmHg 40%
    09:00 +30°C° 0 mm 2 m/s 762 mmHg 33%
    10:00 +34°C° 0 mm 2 m/s 762 mmHg 26%
    11:00 +35°C° 0 mm 3 m/s 761 mmHg 27%
    12:00 +35°C° 0 mm 3 m/s 760 mmHg 29%
    13:00 +36°C° 0 mm 3 m/s 760 mmHg 30%
    14:00 +35°C° 0 mm 3 m/s 759 mmHg 34%
    15:00 +34°C° 0 mm 3 m/s 759 mmHg 38%
    16:00 +31°C° 0 mm 3 m/s 759 mmHg 42%
    17:00 +29°C° 0 mm 3 m/s 759 mmHg 53%
    18:00 +26°C° 0 mm 3 m/s 760 mmHg 63%
    19:00 +24°C° 0 mm 2 m/s 760 mmHg 74%
    20:00 +23°C° 0 mm 2 m/s 761 mmHg 72%
    21:00 +23°C° 0 mm 2 m/s 761 mmHg 70%
    22:00 +23°C° 0 mm 2 m/s 762 mmHg 68%
    23:00 +23°C° 0 mm 2 m/s 761 mmHg 64%

    20 Iunie, Joi

    Timp Temperatura Precipitaţii Vânt Presiune Umiditate
    00:00 +23°C° 0 mm 1 m/s 761 mmHg 60%
    01:00 +23°C° 0 mm 1 m/s 761 mmHg 56%
    02:00 +23°C° 0 mm 1 m/s 761 mmHg 57%
    03:00 +22°C° 0 mm 1 m/s 761 mmHg 57%
    04:00 +22°C° 0 mm 1 m/s 761 mmHg 57%
    05:00 +22°C° 0 mm 1 m/s 761 mmHg 54%
    06:00 +23°C° 0 mm 2 m/s 761 mmHg 51%
    07:00 +23°C° 0 mm 2 m/s 761 mmHg 48%
    08:00 +27°C° 0 mm 2 m/s 761 mmHg 39%
    09:00 +31°C° 0 mm 2 m/s 761 mmHg 30%
    10:00 +35°C° 0 mm 2 m/s 761 mmHg 21%
    11:00 +36°C° 0 mm 2 m/s 761 mmHg 23%
    12:00 +36°C° 0 mm 3 m/s 760 mmHg 24%
    13:00 +36°C° 0 mm 4 m/s 759 mmHg 26%
    14:00 +35°C° 0 mm 3 m/s 759 mmHg 30%
    15:00 +34°C° 0 mm 3 m/s 759 mmHg 33%
    16:00 +32°C° 0 mm 2 m/s 758 mmHg 37%
    17:00 +29°C° 0 mm 1 m/s 759 mmHg 48%
    18:00 +26°C° 0 mm 1 m/s 759 mmHg 60%
    19:00 +22°C° 0 mm 0 m/s 760 mmHg 71%
    20:00 +22°C° 0 mm 0 m/s 760 mmHg 67%
    21:00 +24°C° 0 mm 1 m/s 761 mmHg 62%
    22:00 +24°C° 0 mm 1 m/s 761 mmHg 58%
    23:00 +24°C° 0 mm 1 m/s 761 mmHg 56%

    21 Iunie, Vineri

    Timp Temperatura Precipitaţii Vânt Presiune Umiditate
    00:00 +24°C° 0 mm 1 m/s 761 mmHg 54%
    01:00 +23°C° 0 mm 1 m/s 761 mmHg 52%
    02:00 +23°C° 0 mm 1 m/s 761 mmHg 52%
    03:00 +23°C° 0 mm 1 m/s 760 mmHg 52%
    04:00 +21°C° 0 mm 2 m/s 760 mmHg 53%
    05:00 +22°C° 0 mm 1 m/s 760 mmHg 51%
    06:00 +22°C° 0 mm 1 m/s 761 mmHg 50%
    07:00 +22°C° 0 mm 1 m/s 761 mmHg 49%
    08:00 +26°C° 0 mm 1 m/s 761 mmHg 42%
    09:00 +29°C° 0 mm 2 m/s 761 mmHg 35%
    10:00 +32°C° 0 mm 2 m/s 761 mmHg 28%
    11:00 +33°C° 0 mm 3 m/s 761 mmHg 31%
    12:00 +34°C° 0 mm 4 m/s 760 mmHg 35%
    13:00 +34°C° 0 mm 4 m/s 759 mmHg 38%
    14:00 +33°C° 0 mm 4 m/s 759 mmHg 43%
    15:00 +31°C° 0 mm 3 m/s 758 mmHg 47%
    16:00 +30°C° 0 mm 3 m/s 758 mmHg 51%
    17:00 +28°C° 0 mm 2 m/s 758 mmHg 62%
    18:00 +25°C° 0 mm 1 m/s 759 mmHg 72%
    19:00 +23°C° 0 mm 1 m/s 759 mmHg 83%
    20:00 +23°C° 0 mm 1 m/s 760 mmHg 82%
    21:00 +22°C° 0 mm 1 m/s 760 mmHg 81%
    22:00 +22°C° 0 mm 1 m/s 761 mmHg 81%
    23:00 +22°C° 0 mm 1 m/s 761 mmHg 77%

    22 Iunie, Sâmbătă

    Timp Temperatura Precipitaţii Vânt Presiune Umiditate
    00:00 +22°C° 0 mm 1 m/s 760 mmHg 73%
    01:00 +22°C° 0 mm 1 m/s 760 mmHg 69%
    02:00 +22°C° 0 mm 1 m/s 760 mmHg 71%
    03:00 +21°C° 0 mm 1 m/s 760 mmHg 73%
    04:00 +21°C° 0 mm 1 m/s 760 mmHg 75%
    05:00 +21°C° 0 mm 1 m/s 760 mmHg 71%
    06:00 +22°C° 0 mm 1 m/s 761 mmHg 67%
    07:00 +21°C° 0 mm 2 m/s 761 mmHg 63%
    08:00 +25°C° 0 mm 2 m/s 761 mmHg 54%
    09:00 +28°C° 0 mm 2 m/s 761 mmHg 45%
    10:00 +31°C° 0 mm 2 m/s 761 mmHg 35%
    11:00 +31°C° 0 mm 3 m/s 760 mmHg 39%
    12:00 +33°C° 0 mm 4 m/s 759 mmHg 43%
    13:00 +33°C° 0 mm 5 m/s 759 mmHg 46%
    14:00 +32°C° 0 mm 4 m/s 758 mmHg 51%
    15:00 +30°C° 0 mm 3 m/s 758 mmHg 56%
    16:00 +29°C° 0 mm 3 m/s 758 mmHg 61%
    17:00 +27°C° 0 mm 2 m/s 758 mmHg 72%
    18:00 +25°C° 0 mm 1 m/s 759 mmHg 82%
    19:00 +20°C° 0 mm 0 m/s 759 mmHg 93%
    20:00 +22°C° 0 mm 1 m/s 760 mmHg 93%
    21:00 +22°C° 0 mm 1 m/s 760 mmHg 92%
    22:00 +22°C° 0 mm 1 m/s 761 mmHg 92%
    23:00 +22°C° 0 mm 1 m/s 761 mmHg 88%
    Arată mai mult